Wind_Speed
34 34 35 35 35 35 36 37 38 36 35 32 32 31 30 29 29 29 28 27 27 26 24 23 23 24 24 24 23 23 23 22 22 22 23 23 23 24 24 24 23 23 24 25
36 35 35 35 36 36 36 36 37 37 36 34 33 32 31 31 30 30 29 29 29 29 27 26 26 25 26 26 25 25 25 24 24 25 25 26 26 26 27 26 26 26 27 27
37 36 36 36 35 35 36 36 37 38 37 35 34 33 32 32 32 32 31 30 31 31 31 30 29 29 29 29 28 27 27 27 28 28 28 28 28 29 29 29 29 29 30 30
37 36 38 36 35 35 36 36 38 39 38 37 36 34 34 34 34 33 33 33 33 33 32 32 32 32 31 31 31 30 30 30 31 32 31 30 30 30 30 30 31 31 31 32
38 38 38 36 35 36 36 37 37 38 38 37 37 37 36 36 36 35 35 35 35 35 34 34 34 33 33 32 32 32 32 33 33 33 32 31 30 29 30 32 32 32 33 34
37 37 37 35 35 36 36 36 36 37 37 37 37 37 36 37 38 38 37 37 37 36 36 35 35 35 35 34 35 34 35 35 34 34 33 31 31 31 32 32 33 33 34 34
36 36 36 36 36 36 37 36 36 36 37 36 36 37 36 37 37 38 38 38 37 37 36 36 35 35 35 35 35 35 34 34 34 33 31 31 31 32 33 34 34 34 34 35
35 36 36 36 37 37 37 37 36 37 37 36 36 37 37 37 37 37 37 36 36 35 36 36 36 35 35 36 36 35 34 34 33 33 32 32 32 33 34 34 35 35 36 37
35 35 35 35 36 37 37 37 37 37 36 36 37 37 36 36 36 37 37 36 36 35 35 36 36 36 36 36 35 35 35 34 35 34 34 34 34 34 35 35 35 37 37 38
34 33 34 35 36 37 37 37 37 37 37 37 37 36 36 36 36 36 36 36 36 35 35 35 36 36 36 36 36 36 35 35 35 35 35 35 35 36 37 37 37 37 38 39
34 34 35 35 35 36 37 38 38 38 37 37 37 37 37 37 37 37 37 36 36 36 36 36 36 36 36 37 36 35 35 36 36 36 36 37 38 38 39 39 39 39 39 39
32 33 34 34 35 36 37 37 37 36 37 37 37 37 37 37 36 36 36 36 35 35 36 37 36 35 35 34 34 34 34 34 36 37 37 38 39 39 40 41 40 40 40 39
31 31 33 33 34 34 35 36 35 35 35 36 37 36 37 37 36 34 34 34 34 34 34 35 34 34 34 33 32 32 33 34 35 36 37 38 38 39 39 39 39 39 39 39
30 31 31 32 32 32 32 32 33 34 35 34 34 34 34 35 35 34 33 33 32 33 33 33 33 33 33 32 32 33 32 33 34 34 35 36 36 37 37 38 38 38 39 39
28 28 28 29 29 29 29 29 29 29 30 30 31 31 31 31 32 32 32 32 31 30 30 30 30 31 31 31 31 32 33 33 33 33 35 35 36 37 37 37 37 38 38 39
25 25 25 25 26 26 26 26 26 25 25 25 26 27 27 27 28 28 28 29 28 28 28 28 28 29 29 30 30 31 31 32 33 33 34 36 36 37 37 36 36 36 37 37
21 21 21 21 21 22 22 23 24 23 22 22 22 22 22 23 24 25 25 25 25 25 26 26 27 27 27 28 28 29 29 30 31 32 32 33 33 33 33 33 33 33 32 32
18 18 18 17 17 17 17 18 18 18 18 17 18 18 18 19 20 21 21 21 21 21 22 24 25 25 25 25 27 28 28 29 30 30 31 31 30 30 30 31 31 31 31 31
15 15 16 17 17 17 17 16 16 15 16 16 16 17 17 17 18 18 19 19 19 20 21 21 23 23 23 24 25 26 27 26 26 26 27 28 28 28 29 29 29 29 29 29
14 14 14 15 16 15 15 15 14 13 14 14 15 15 16 16 17 17 18 19 19 19 20 21 21 21 22 22 23 23 24 24 24 24 25 26 26 26 26 27 27 27 27 27
12 12 12 13 13 13 13 13 13 12 13 14 14 15 15 16 16 17 17 18 18 18 19 19 19 20 20 20 21 22 23 23 23 24 24 25 25 25 24 24 25 25 26 26
10 10 10 10 10 11 11 11 11 12 12 13 13 14 14 15 15 15 16 16 16 16 17 18 18 19 19 19 20 21 22 22 23 23 23 23 23 23 23 23 23 23 24 24
9 9 8 8 8 8 8 9 10 10 11 11 11 12 12 13 13 14 14 15 15 15 16 16 17 17 18 18 20 20 20 20 21 20 20 20 20 21 21 22 22 22 22 22
8 8 7 7 7 7 7 8 8 9 9 9 10 10 11 11 12 13 14 14 15 15 15 15 16 16 17 18 18 18 18 18 18 18 18 18 19 20 21 21 21 21 21 21
7 7 7 7 7 7 7 7 7 8 8 9 9 10 11 11 12 12 13 13 14 14 14 15 16 16 17 17 17 17 17 16 16 16 17 17 18 18 19 19 19 19 19 19
6 6 6 7 8 7 6 6 7 7 7 8 9 9 9 10 11 11 12 13 13 14 14 15 16 16 17 17 17 17 17 17 16 16 16 17 17 18 18 18 19 19 20 20
5 5 5 5 5 5 5 6 7 7 8 8 8 9 9 10 11 11 11 12 13 13 14 15 16 16 17 17 17 17 17 17 17 18 18 18 19 19 20 20 20 21 21 22
Wind_Direction
256 255 254 254 253 254 256 259 261 264 266 266 265 265 264 265 264 261 260 262 266 269 269 270 272 273 272 272 273 274 274 275 275 271 269 268 268 268 268 268 269 271 272 274
257 256 254 253 254 256 257 258 260 263 264 265 264 263 262 264 265 264 264 265 268 270 270 270 270 269 268 268 269 270 271 271 271 271 269 270 268 269 268 267 268 271 273 275
255 254 254 254 255 256 257 258 259 261 263 265 266 264 263 263 264 266 265 266 268 271 270 270 268 268 269 267 266 268 269 269 270 272 271 271 270 270 270 270 270 270 272 274
254 253 254 257 256 256 257 258 259 260 263 264 264 263 263 264 263 264 265 266 267 270 270 270 268 267 269 269 268 268 269 269 269 270 270 271 270 271 272 272 272 271 272 272
253 254 255 256 257 257 258 260 260 260 261 261 262 262 262 262 262 263 264 265 267 268 268 268 268 269 271 270 270 269 268 269 269 270 270 269 269 271 272 272 273 274 274 272
254 255 255 255 256 258 260 261 260 260 260 261 262 262 262 263 264 264 265 266 267 267 268 268 268 268 269 269 270 271 271 270 270 269 268 269 270 270 272 274 274 276 276 274
256 256 257 257 258 260 261 262 261 261 261 261 260 261 262 263 264 264 266 267 267 267 267 267 268 268 268 268 268 269 270 270 268 266 267 269 272 273 273 275 276 277 276 275
257 259 258 259 261 261 262 262 263 263 262 261 261 261 262 263 264 264 266 266 266 266 266 266 266 266 265 266 267 267 267 268 267 267 268 269 272 274 275 276 276 276 277 276
259 259 259 261 262 262 262 263 263 263 262 262 263 263 263 264 264 264 265 265 264 265 266 266 265 265 265 266 267 267 267 267 267 268 269 271 272 274 275 276 277 277 277 278
262 262 260 261 261 262 263 263 263 263 263 263 263 263 263 263 264 264 265 265 264 265 266 266 266 266 266 266 267 267 266 265 266 268 269 271 273 274 276 277 278 278 278 279
263 263 262 262 262 263 263 263 263 263 263 262 262 263 263 263 264 264 263 263 264 265 265 266 267 268 268 267 267 266 265 266 267 268 269 271 273 274 275 276 277 278 278 279
263 263 263 262 261 262 262 263 263 263 263 262 263 264 264 264 264 263 263 263 263 264 265 265 267 268 269 271 268 266 266 266 267 269 270 271 272 274 275 277 278 278 278 277
262 262 262 261 261 262 263 264 264 263 264 264 263 264 264 264 263 263 263 263 264 264 265 266 267 269 270 273 270 268 268 268 268 270 271 272 273 275 276 277 277 278 278 277
259 260 262 262 263 263 263 264 264 264 263 264 264 264 265 264 263 264 265 263 263 264 264 265 266 269 271 271 271 269 270 271 271 272 273 274 275 276 277 277 277 278 279 279
260 261 262 263 264 264 264 266 266 264 264 264 263 263 265 264 263 263 263 262 261 263 265 267 269 270 270 271 272 272 271 272 273 274 275 276 276 278 278 278 278 278 279 279
260 262 264 262 263 264 265 266 267 266 265 262 263 263 264 265 264 263 262 261 261 264 267 268 270 270 271 273 274 275 274 274 275 276 277 277 279 279 279 279 279 280 279 279
260 262 265 261 261 263 264 267 269 270 268 264 263 262 263 263 262 262 263 262 263 266 267 268 269 272 275 276 277 276 276 276 276 276 278 279 279 279 280 279 280 280 279 279
261 260 260 261 261 263 264 264 266 266 265 261 260 263 261 261 262 263 263 263 265 267 269 270 272 274 274 275 277 277 277 279 279 278 279 280 279 280 281 282 282 282 281 282
262 263 264 264 263 264 265 265 264 259 256 256 258 258 258 260 263 264 263 264 267 271 273 275 275 275 275 276 277 278 278 280 281 281 281 283 284 284 283 284 284 284 284 283
264 266 265 264 264 263 266 268 266 262 261 261 263 262 261 262 264 265 266 268 272 273 274 276 277 278 280 281 281 281 281 281 282 283 284 285 285 285 285 284 284 284 285 286
264 267 269 268 268 267 265 266 267 271 272 271 272 271 269 269 268 268 269 272 274 275 275 276 277 279 280 280 280 281 280 281 282 283 284 285 286 286 286 287 287 287 288 289
269 271 270 269 271 271 269 268 271 274 274 275 274 273 271 269 269 268 269 272 275 277 278 277 278 281 282 282 282 283 283 283 284 285 285 286 286 289 291 292 292 292 292 291
269 273 274 272 275 273 270 272 275 277 275 274 274 273 270 269 270 269 270 273 277 280 281 280 280 281 283 284 286 287 287 287 288 289 290 291 291 293 294 294 294 293 292 293
272 276 278 277 280 276 275 273 275 276 275 273 274 277 279 278 276 276 277 277 279 281 282 281 280 281 283 284 286 288 289 290 292 293 293 294 294 295 296 297 296 295 294 293
275 276 277 279 281 279 278 279 281 281 280 281 282 284 286 286 285 283 283 282 281 281 281 284 286 287 287 287 289 289 288 289 291 292 293 295 296 297 298 300 301 300 298 297
286 284 283 284 283 280 281 287 291 290 289 288 289 292 293 292 289 288 287 287 287 287 287 289 290 290 289 290 290 291 292 292 292 293 294 296 299 300 301 302 303 302 300 299
291 296 296 291 281 280 286 291 295 295 295 295 296 297 297 296 295 295 294 293 292 293 294 295 295 295 293 294 295 296 295 294 294 295 296 297 298 300 301 302 302 301 300 300
Height
5811 5813 5814 5816 5818 5820 5821 5821 5822 5824 5826 5828 5829 5831 5833 5834 5835 5837 5838 5840 5841 5842 5842 5843 5843 5843 5842 5842 5842 5842 5842 5842 5841 5841 5840 5840 5840 5840 5840 5840 5840 5840 5840 5839
5802 5804 5805 5807 5809 5811 5812 5813 5814 5816 5818 5819 5820 5822 5824 5825 5827 5828 5830 5832 5833 5834 5834 5835 5835 5835 5835 5835 5835 5835 5835 5835 5835 5834 5834 5834 5833 5833 5832 5833 5833 5833 5833 5832
5792 5795 5796 5798 5801 5802 5804 5805 5806 5807 5810 5811 5812 5814 5815 5817 5818 5820 5821 5823 5824 5824 5825 5826 5827 5827 5828 5827 5827 5827 5827 5828 5827 5827 5826 5826 5826 5825 5825 5824 5824 5824 5824 5824
5783 5786 5787 5792 5793 5794 5795 5796 5797 5799 5800 5802 5804 5805 5807 5808 5809 5811 5812 5813 5814 5815 5816 5817 5818 5818 5818 5818 5818 5819 5818 5818 5818 5818 5817 5817 5817 5817 5816 5816 5816 5815 5815 5815
5774 5775 5778 5782 5783 5784 5785 5787 5789 5789 5791 5793 5794 5795 5797 5799 5800 5801 5802 5803 5805 5806 5806 5807 5808 5808 5809 5809 5809 5809 5809 5809 5809 5809 5808 5808 5808 5808 5807 5807 5807 5806 5806 5805
5764 5766 5768 5773 5774 5774 5776 5777 5779 5780 5781 5783 5784 5786 5788 5789 5789 5791 5792 5793 5794 5795 5796 5797 5798 5798 5799 5799 5799 5799 5799 5799 5798 5799 5799 5799 5799 5798 5798 5798 5797 5797 5796 5795
5755 5756 5758 5762 5764 5765 5767 5769 5769 5770 5771 5773 5774 5776 5777 5778 5779 5780 5781 5782 5783 5784 5785 5786 5787 5788 5788 5789 5789 5790 5789 5789 5789 5789 5789 5790 5789 5788 5788 5789 5788 5787 5786 5786
5745 5747 5751 5752 5753 5755 5756 5757 5758 5759 5761 5762 5763 5765 5766 5767 5768 5769 5770 5771 5772 5773 5774 5775 5776 5777 5777 5778 5778 5779 5779 5780 5779 5780 5780 5780 5780 5779 5779 5779 5778 5777 5776 5776
5737 5740 5741 5742 5743 5744 5745 5746 5747 5748 5750 5751 5753 5754 5755 5757 5758 5759 5760 5761 5761 5762 5763 5764 5764 5765 5766 5767 5767 5767 5768 5769 5769 5770 5770 5770 5770 5770 5769 5768 5767 5766 5766 5765
5727 5729 5731 5732 5733 5734 5735 5736 5737 5738 5739 5740 5742 5743 5744 5746 5747 5747 5748 5749 5750 5751 5753 5753 5754 5754 5755 5755 5756 5757 5757 5758 5758 5758 5759 5760 5760 5759 5759 5758 5757 5756 5755 5754
5718 5720 5720 5722 5723 5724 5724 5725 5726 5727 5727 5729 5730 5732 5733 5735 5736 5737 5738 5739 5740 5741 5742 5743 5743 5744 5744 5744 5745 5745 5746 5747 5747 5748 5748 5748 5748 5748 5747 5747 5746 5745 5744 5742
5709 5710 5710 5712 5712 5713 5713 5714 5715 5716 5717 5718 5719 5720 5722 5724 5725 5726 5727 5728 5730 5730 5731 5732 5733 5733 5734 5734 5734 5734 5735 5735 5736 5737 5737 5737 5737 5736 5735 5735 5734 5732 5731 5731
5700 5700 5700 5701 5702 5702 5703 5704 5704 5705 5706 5707 5709 5710 5711 5712 5714 5715 5717 5718 5719 5720 5721 5722 5723 5723 5723 5723 5723 5724 5724 5725 5726 5726 5726 5726 5725 5724 5724 5723 5721 5721 5720 5718
5690 5691 5692 5692 5693 5693 5693 5693 5694 5695 5696 5697 5698 5699 5700 5701 5703 5705 5706 5708 5709 5710 5711 5712 5713 5713 5713 5713 5713 5713 5714 5714 5715 5715 5715 5714 5714 5713 5712 5711 5710 5709 5707 5706
5682 5683 5683 5684 5684 5684 5684 5685 5685 5685 5686 5687 5688 5690 5690 5692 5694 5695 5697 5698 5699 5701 5702 5703 5703 5703 5703 5703 5703 5703 5704 5704 5704 5704 5704 5703 5703 5702 5701 5699 5698 5697 5696 5694
5675 5676 5675 5676 5677 5677 5677 5678 5677 5677 5678 5678 5680 5681 5683 5684 5685 5687 5688 5689 5691 5693 5694 5694 5694 5694 5693 5693 5694 5694 5694 5694 5694 5694 5694 5693 5692 5691 5689 5688 5687 5686 5685 5683
5669 5669 5669 5669 5670 5670 5670 5671 5671 5671 5671 5672 5673 5674 5676 5677 5679 5680 5680 5681 5683 5684 5685 5686 5685 5685 5684 5684 5684 5685 5685 5685 5685 5684 5684 5683 5682 5680 5678 5677 5677 5676 5675 5674
5664 5665 5664 5665 5665 5665 5665 5666 5666 5666 5666 5667 5668 5669 5670 5671 5673 5674 5674 5675 5676 5676 5677 5677 5677 5677 5676 5676 5676 5676 5676 5676 5676 5675 5674 5673 5672 5671 5670 5668 5667 5666 5665 5664
5660 5660 5661 5661 5661 5661 5662 5662 5661 5661 5661 5662 5663 5664 5666 5666 5667 5668 5669 5669 5669 5670 5670 5670 5670 5669 5669 5669 5669 5668 5668 5668 5667 5666 5665 5664 5663 5662 5661 5659 5658 5657 5655 5654
5656 5656 5656 5656 5656 5657 5657 5657 5657 5657 5657 5658 5659 5660 5661 5662 5662 5663 5663 5664 5664 5664 5663 5663 5663 5663 5663 5662 5662 5661 5661 5660 5660 5659 5658 5656 5655 5654 5652 5651 5650 5648 5647 5645
5653 5653 5653 5653 5653 5653 5653 5654 5654 5654 5654 5655 5655 5656 5656 5657 5657 5658 5658 5659 5659 5658 5658 5658 5657 5657 5656 5656 5655 5654 5654 5653 5653 5651 5650 5649 5648 5646 5645 5643 5641 5640 5638 5636
5650 5650 5650 5650 5650 5650 5650 5650 5651 5651 5651 5651 5651 5651 5652 5652 5653 5653 5653 5654 5653 5653 5652 5652 5652 5651 5650 5650 5649 5648 5648 5646 5645 5644 5642 5641 5640 5638 5637 5635 5634 5632 5630 5629
5648 5648 5648 5648 5647 5647 5647 5648 5648 5648 5648 5648 5647 5647 5648 5648 5648 5648 5648 5648 5648 5648 5647 5647 5646 5645 5645 5644 5643 5642 5641 5640 5639 5637 5636 5634 5633 5632 5630 5628 5627 5625 5623 5622
5645 5645 5645 5646 5645 5645 5645 5645 5645 5645 5645 5644 5644 5644 5644 5644 5644 5644 5644 5644 5643 5643 5642 5642 5641 5640 5640 5639 5637 5636 5635 5634 5632 5631 5630 5628 5627 5625 5624 5622 5620 5618 5616 5615
5644 5644 5644 5643 5643 5643 5643 5643 5642 5642 5642 5642 5642 5641 5641 5641 5640 5640 5640 5639 5639 5638 5638 5637 5636 5635 5634 5633 5631 5630 5629 5628 5626 5625 5624 5623 5621 5619 5618 5616 5614 5612 5610 5608
5642 5641 5641 5641 5641 5641 5640 5640 5640 5640 5639 5639 5639 5638 5638 5637 5637 5637 5636 5635 5635 5634 5633 5632 5631 5630 5629 5627 5626 5625 5623 5622 5621 5620 5618 5617 5615 5614 5612 5610 5608 5606 5604 5602
5640 5639 5639 5639 5638 5638 5638 5638 5638 5637 5637 5637 5636 5635 5635 5634 5633 5633 5632 5631 5630 5629 5629 5627 5626 5625 5623 5622 5621 5620 5618 5617 5615 5614 5612 5611 5609 5608 5606 5604 5602 5600 5598 5596